Home > Weather > Gelendzhik > Past weeks

Flag for Russia Weather for the Past 2 Weeks in Gelendzhik, Russia

Now
39 °F

Scattered clouds.


Feels Like: 37 °F
Forecast: 33 / 50 °F
Wind: 3 mph from Southeast

Location: Anapa / Vitiazevo

Current Time: Feb 9, 2016 at 7:16:27 PM

Latest Report: Feb 9, 2016 at 6:30 PM


Visibility: N/A

Pressure: 30.30 "Hg

Humidity: 87%

Dew point: 36 °F

Location of GelendzhikLocation

Historic Weather in Gelendzhik — Graph

°F

Gelendzhik Temperature Yesterday

Maximum temperature yesterday: 37 °F (at 3:30 PM)
Minimum temperature yesterday: 21 °F (at 6:30 AM)
Average temperature yesterday: 29 °F

High & Low Weather Summary for the Past Weeks

 TemperatureHumidityPressure
High63 °F (Feb 4, 1:00 PM)100% (Jan 28, 7:00 AM)30.42 "Hg (Jan 28, 7:00 AM)
Low10 °F (Jan 26, 1:00 AM)45% (Jan 27, 10:30 AM)29.86 "Hg (Feb 1, 12:30 PM)
Average37 °F86%30.18 "Hg
* Reported Jan 25 5:00 PM — Feb 9 5:30 PM, Gelendzhik, Weather by CustomWeather, © 2016

Note: Actual official high and low records may vary slightly from our data, if they occured in-between our weather recording intervals... More about our weather records

Advertising

Gelendzhik Weather History for the Previous 24 Hours

 ConditionsComfort  
Time TempWeatherWind HumidityBarometerVisibility
5:30 PM
Tue, Feb 9
45 °FPassing clouds.6 mph76%30.27 "HgN/A
5:00 PM48 °FPassing clouds.6 mph66%30.27 "HgN/A
4:30 PM48 °FPassing clouds.6 mph66%30.27 "HgN/A
4:00 PM50 °FPassing clouds.6 mph67%30.30 "HgN/A
3:30 PM50 °FScattered clouds.3 mph62%30.30 "HgN/A
3:00 PM50 °FScattered clouds.8 mph67%30.30 "HgN/A
2:30 PM50 °FScattered clouds.8 mph67%30.30 "HgN/A
1:30 PM48 °FScattered clouds.10 mph66%30.30 "HgN/A
1:00 PM48 °FScattered clouds.3 mph71%30.30 "HgN/A
12:30 PM48 °FScattered clouds.6 mph71%30.33 "HgN/A
12:00 PM48 °FPartly sunny.8 mph71%30.33 "HgN/A
11:00 AM46 °FScattered clouds.6 mph76%30.33 "HgN/A
10:30 AM45 °FPartly sunny.3 mph76%30.33 "HgN/A
10:00 AM43 °FPartly sunny.3 mph81%30.33 "HgN/A
9:30 AM41 °FPartly sunny.3 mph93%30.33 "HgN/A
9:00 AM37 °FPartly sunny.3 mph100%30.36 "HgN/A
8:30 AM36 °FPassing clouds.3 mph100%30.36 "HgN/A
8:00 AM34 °FPassing clouds.6 mph93%30.33 "HgN/A
7:30 AM34 °FChilly.6 mph100%30.33 "HgN/A
6:30 AM36 °FChilly.8 mph93%30.33 "HgN/A
6:00 AM39 °FSprinkles. Overcast.6 mph93%30.33 "HgN/A
5:30 AM39 °FChilly.6 mph93%30.33 "HgN/A
5:00 AM37 °FChilly.6 mph93%30.33 "HgN/A
4:30 AM37 °FChilly.3 mph93%30.33 "HgN/A
4:00 AM39 °FChilly.3 mph87%30.33 "HgN/A
3:30 AM39 °FChilly.6 mph87%30.33 "HgN/A
3:00 AM37 °FChilly.3 mph87%30.33 "HgN/A
2:30 AM39 °FChilly.6 mph87%30.36 "HgN/A
2:00 AM37 °FChilly.6 mph87%30.36 "HgN/A
1:00 AM32 °FChilly.3 mph93%30.36 "HgN/A
12:30 AM34 °FChilly.6 mph93%30.36 "HgN/A
12:00 AM36 °FChilly.6 mph87%30.36 "HgN/A
11:30 PM
Mon, Feb 8
36 °FChilly.8 mph87%30.36 "HgN/A
11:00 PM36 °FChilly.10 mph87%30.36 "HgN/A
10:30 PM37 °FChilly.8 mph87%30.36 "HgN/A
10:00 PM34 °FChilly.10 mph93%30.36 "HgN/A
9:30 PM32 °FPassing clouds.8 mph93%30.36 "HgN/A
9:00 PM34 °FPassing clouds.8 mph93%30.36 "HgN/A
8:30 PM32 °FPassing clouds.13 mph93%30.36 "HgN/A
8:00 PM32 °FPassing clouds.3 mph87%30.36 "HgN/A
7:30 PM32 °FPassing clouds.3 mph93%30.36 "HgN/A
7:00 PM32 °FPassing clouds.3 mph93%30.36 "HgN/A
Weather by CustomWeather, © 2016

See weather overviewHow to use our weather pages